Location: Stockholm
(59.3333°N, 18.0500°E)
Time: 17:30:59
(UTC+02:00)

ISS - Pass Details

Date: 30 January 2021
Orbit: 417 x 422 km, 51.6° (Epoch: 18 May)

Event Time Altitude Azimuth Distance (km) Brightness Sun altitude
Rises 17:00:03 0° 245° (WSW) 2,371 2.7 -7.5°
Reaches altitude 10° 17:02:25 10° 230° (SW) 1,508 0.5 -7.8°
Maximum altitude 17:05:07 22° 177° (S) 970 -1.7 -8.1°
Drops below altitude 10° 17:07:50 10° 124° (SE) 1,512 -1.3 -8.4°
Enters shadow 17:09:06 - 114° (ESE) 1,955 -0.8 -8.5°
